Find Starlink 31218

NORAD ID: 58895 Int'l Des: 2024-020 Owner: SPXS Country: US Constellation: starlink operational
LEOCIRCULAR

現在のビュー

3D地球を読み込み中...

About Starlink 31218

Starlink 31218 (NORAD 58895) is a starlink constellation satellite (v2 mini) launched Jan 29, 2024 by SPXS of US. It operates in LEO, CIRCULAR orbit with a mass of 730.00 kg.

Starlink 31218について

説明を読み込み中...

次回通過

Passes for default location (London). Set your location on the main map for personalized predictions.

高度履歴

Loading altitude history...

軌道要素

1 58895U 24020V 26171.40708977 .00001199 00000-0 50392-4 0 9995
2 58895 53.1599 204.8815 0001134 84.5130 275.6000 15.31702920133802
Epoch: Jun 20, 2026 • Age: 42 hours

現在のステータス

高度 487.4 km
速度 7.62 km/s
衛星直下点 -46.84°S, 105.74°E
打ち上げ日 Jan 29, 2024
運用期間 2.3 years
タイプ internet

技術仕様

分類 Payload
質量 730.00 kg
乾燥質量 700.00 kg
総質量 730.00 kg
長さ 0.30 m
直径 4.10 m
スパン 29.00 m
形状 Box + pan
製造者 SPXS
バスタイプ Starlink V2M
フェーズステータス In Orbit
所有者/国 SPXS/US

Most Searched